User: anonymous   Login
Location: Unspecified
(0.0000°N, 0.0000°E)
Time: 14:28:26
(UTC+00:00)
Language:

COSMOS 2489 - Orbit

View from above orbital plane
View from above orbital plane
View from above satellite
View from above satellite

Ground track
Ground track

The orbit data is extracted from the following two-line orbital elements,

1 39484U 13076B   18267.71999304 +.00000014 +00000-0 +30373-4 0  9996
2 39484 082.4864 128.1862 0022068 126.1160 345.6878 12.42889317215526
Epoch (UTC): 24 September 2018 17:16:47
Eccentricity: 0.0022068
inclination: 82.4864°
perigee height: 1477 km
apogee height: 1512 km
right ascension of ascending node: 128.1862°
argument of perigee: 126.1160°
revolutions per day: 12.42889317
mean anomaly at epoch: 345.6878°
orbit number at epoch: 21552

The dashed part of the orbit path shows where the satellite is in the earth's shadow,  

DLR